Location: ??????
(38.0677°N, 22.9870°E)
Time: 12:02:40
(UTC+00:00)

Cosmos 839 Rocket - Pass Details

Date: 23 May 2024
Orbit: 965 x 2088 km, 65.9° (Epoch: 18 June)

Event Time Altitude Azimuth Distance (km) Brightness Sun altitude
Rises 01:21:10 0° 331° (NNW) 4,137 7.5 -18.2°
Reaches altitude 10° 01:24:07 10° 333° (NNW) 3,038 6.8 -17.8°
Maximum altitude 01:31:03 76° 59° (ENE) 1,046 4.3 -16.8°
Drops below altitude 10° 01:37:10 10° 145° (SE) 2,695 6.2 -15.9°
Sets 01:39:38 0° 147° (SSE) 3,639 6.9 -15.6°
